1998-067WV

Last updated on Tue Oct 22 2024 00:02:06 GMT+0000 (Coordinated Universal Time)

1 60955U 98067WV 24295.33823779 .06453473 12009-4 26290-2 0 9998 2 60955 51.6166 43.0490 0010894 336.3668 23.6849 16.22453324 8315

Satellite not in orbit